Barrow, AK

4:04 AM AKDT on September 28, 2016 (GMT -0800)
Wiley Post-Will Rogers Memorial

Weather History for PABR - November, 2013

Change the Weather History Date:

Sunday, November 3, 2013

  Actual Average Record
Temperature  
Mean Temperature 16 °F -  
Max Temperature 28 °F 12 °F 34 °F (1998)
Min Temperature 4 °F - -24 °F (1975)
Degree Days  
Heating Degree Days 49 59  
Month to date heating degree days 166 175  
Since 1 July heating degree days 3819 4197  
Cooling Degree Days 0    
Month to date cooling degree days 0  
Year to date cooling degree days 0  
Moisture  
Dew Point 13 °F    
Average Humidity 0    
Maximum Humidity 0    
Minimum Humidity 0    
Precipitation  
Precipitation 0.03 in 0.01 in 0.16 in (1925)
Month to date precipitation 0.03 0.03  
Year to date precipitation 6.83 4.21  
Snow  
Snow 0.70 in 0.20 in 3.00 in (1925)
Month to date snowfall 0.7 0.7  
Since 1 July snowfall 17.0 15.3  
Since 1 September snowfall 15.9 14.2  
Snow Depth 3.00 in    
Sea Level Pressure  
Sea Level Pressure 29.61 in    
Wind  
Wind Speed 10 mph (ESE)    
Max Wind Speed 17 mph    
Max Gust Speed 18 mph    
Visibility 7 miles    
Events Fog , Snow    
T = Trace of Precipitation, MM = Missing Value Source: NWS Daily Summary

Daily Weather History Graph

Daily Weather History Graph

Search for Another Location

Airport or City:

Trip Planner

Search our weather history database for the weather conditions in past years. The results will help you decide how hot, cold, wet, or windy it might be!

Date:

Astronomy

Nov. 03, 2013 Rise Set
Actual Time 10:28 AM AKST 3:51 PM AKST
Civil Twilight 9:02 AM AKST 5:17 PM AKST
Nautical Twilight 7:41 AM AKST 6:38 PM AKST
Astronomical Twilight 6:25 AM AKST 7:53 PM AKST
Moon 11:18 AM AKST (11/3) 3:34 PM AKST (11/3)
Length of Visible Light 8h 15m
Length of Day
5h 22m
New Moon, 0% of the Moon is Illuminated
Nov 3
New Moon
Nov 9
First Quarter
Nov 17
Full
Nov 25
Last Quarter
Dec 2
New

Hourly Weather History & Observations

Time (AKST) Temp. Windchill Dew Point Humidity Pressure Visibility Wind Dir Wind Speed Gust Speed Precip Events Conditions
12:53 AM 19.0 °F 5.0 °F 15.1 °F 85% 29.65 in 10.0 mi SSW 15.0 mph - N/A   Overcast
1:53 AM 21.9 °F 11.0 °F 19.9 °F 92% 29.66 in 2.0 mi South 10.4 mph - 0.01 in Snow Light Snow
1:58 AM 21.2 °F 8.3 °F 17.6 °F 86% 29.66 in 1.2 mi SSW 13.8 mph - 0.00 in Snow Light Snow
1:08 AM 24.8 °F 14.6 °F 19.4 °F 80% 29.66 in 3.0 mi West 10.4 mph - 0.00 in Snow Light Snow
1:23 AM 28.4 °F 18.5 °F 24.8 °F 86% 29.66 in 8.0 mi West 11.5 mph - 0.00 in Snow Light Snow
1:34 AM 28.4 °F 18.5 °F 24.8 °F 86% 29.67 in 6.0 mi West 11.5 mph - 0.00 in Snow Light Snow
1:53 AM 27.0 °F 16.1 °F 21.9 °F 81% 29.68 in 8.0 mi WNW 12.7 mph - 0.01 in Snow Light Snow
2:53 AM 26.1 °F 15.0 °F 19.9 °F 78% 29.69 in 9.0 mi WNW 12.7 mph - 0.00 in Snow Light Snow
3:45 AM 24.8 °F 14.0 °F 17.6 °F 74% 29.69 in 10.0 mi WNW 11.5 mph - 0.00 in   Scattered Clouds
3:53 AM 25.0 °F 13.6 °F 16.0 °F 69% 29.70 in 10.0 mi WNW 12.7 mph - 0.00 in   Mostly Cloudy
4:53 AM 24.1 °F 15.2 °F 15.1 °F 69% 29.70 in 10.0 mi NW 8.1 mph - N/A   Overcast
5:53 AM 23.0 °F 13.9 °F 14.0 °F 68% 29.70 in 10.0 mi NW 8.1 mph - N/A   Scattered Clouds
6:53 AM 23.0 °F 17.0 °F 14.0 °F 68% 29.71 in 10.0 mi NNW 4.6 mph - N/A   Scattered Clouds
7:53 AM 7.0 °F 0.1 °F 3.0 °F 84% 29.71 in 10.0 mi ESE 3.5 mph - N/A   Scattered Clouds
8:28 AM 5.0 °F -5.6 °F 3.2 °F 92% 29.70 in 0.5 mi SE 5.8 mph - N/A Fog Light Freezing Fog
8:53 AM 3.9 °F -8.2 °F 1.9 °F 91% 29.70 in 0.2 mi SE 6.9 mph - N/A Fog Light Freezing Fog
9:19 AM 8.6 °F -2.6 °F 5.0 °F 85% 29.69 in 3.0 mi ESE 6.9 mph - N/A   Mostly Cloudy
9:53 AM 9.0 °F -0.9 °F 7.0 °F 92% 29.69 in 10.0 mi East 5.8 mph - N/A   Mostly Cloudy
10:53 AM 17.1 °F 5.8 °F 12.9 °F 84% 29.68 in 10.0 mi East 9.2 mph - N/A   Mostly Cloudy
11:53 AM 19.9 °F 10.1 °F 14.0 °F 78% 29.66 in 10.0 mi East 8.1 mph - N/A   Overcast
12:53 PM 19.9 °F 10.1 °F 16.0 °F 85% 29.64 in 10.0 mi East 8.1 mph - N/A   Overcast
1:53 PM 21.0 °F 10.6 °F 18.0 °F 88% 29.62 in 10.0 mi ESE 9.2 mph - N/A   Overcast
2:50 PM 21.2 °F 9.5 °F 19.4 °F 93% 29.59 in 1.8 mi ESE 11.5 mph - N/A   Overcast
2:53 PM 21.0 °F 9.9 °F 19.0 °F 92% 29.59 in 1.2 mi ESE 10.4 mph - N/A   Overcast
2:56 PM 21.2 °F 10.1 °F 19.4 °F 93% 29.58 in 1.0 mi ESE 10.4 mph - N/A   Overcast
2:58 PM 21.2 °F 9.5 °F 19.4 °F 93% 29.58 in 0.8 mi ESE 11.5 mph - N/A   Overcast
3:10 PM 21.2 °F 8.3 °F 19.4 °F 93% 29.58 in 1.0 mi ESE 13.8 mph - N/A   Overcast
3:25 PM 19.4 °F 5.5 °F 17.6 °F 93% 29.57 in 3.0 mi ESE 15.0 mph - N/A   Overcast
3:53 PM 16.0 °F 3.6 °F 14.0 °F 92% 29.56 in 10.0 mi ESE 10.4 mph - N/A   Overcast
4:09 PM 15.8 °F 2.7 °F 12.2 °F 86% 29.55 in 10.0 mi ESE 11.5 mph - N/A   Mostly Cloudy
4:53 PM 10.9 °F -2.6 °F 8.1 °F 88% 29.53 in 10.0 mi East 10.4 mph - N/A   Overcast
5:53 PM 8.1 °F -5.3 °F 3.9 °F 83% 29.50 in 10.0 mi East 9.2 mph - N/A   Overcast
6:53 PM 9.0 °F -7.9 °F 3.9 °F 80% 29.47 in 10.0 mi ESE 15.0 mph - N/A   Overcast
7:53 PM 10.0 °F -6.5 °F 3.9 °F 76% 29.45 in 10.0 mi ESE 15.0 mph - N/A   Overcast
8:53 PM 10.0 °F -5.9 °F 3.9 °F 76% 29.42 in 10.0 mi ESE 13.8 mph - N/A   Overcast
9:53 PM 10.0 °F -4.5 °F 3.9 °F 76% 29.40 in 10.0 mi ESE 11.5 mph - N/A   Overcast
10:53 PM 10.9 °F -2.6 °F 5.0 °F 77% 29.39 in 10.0 mi ESE 10.4 mph - N/A   Overcast